Über Beidou DW 33
Group: 3 satellites
Beschreibung wird geladen...
Live-Position
3D-Globus wird geladen...
Nächste Überflüge
Höhenverlauf
Altitude vs Time
uPlot chart will show altitude changes over time
Zweizeiliger Elementsatz
1 43581U 18062A 26034.94196907 .00000025 00000-0 00000+0 0 9994
2 43581 54.0899 186.8330 0001685 340.9815 18.9578 1.86228692 51151
Epoch: 3. Feb. 2026 •
Age: 21 hours
Aktueller Status
Höhe 21540.7 km
Geschwindigkeit 3.78 km/s
Subsatellitenpunkt -32.25°S,
32.18°W
Startdatum 29. Juli 2018
Alter 7.5 years
Typ navigation
Technische Details
Klassifizierung Payload
Masse 1014.00 kg
Trockenmasse 850.00 kg
Gesamtmasse 1014.00 kg
Länge 2.20 m
Durchmesser 1.70 m
Spannweite 10.00 m
Form Box + 2 Pan
Hersteller CAST
Bus-Typ BD-3M
Phasenstatus In Orbit
Besitzer/Staat CNSA/CN
Große Konstellationen
Loading constellations...